QPF
0.02 0.04 0.03 0.02 0.02 0.02 0.03 0.03 0.03 0.04 0.03 0.03 0.03 0.03 0.03 0.03 0.02 0.01 0.02 0.01 0.01 0.00 0.00 0.01 0.01 0.01 0.02 0.02 0.01 0.01 0.02 0.02 0.03 0.03 0.03 0.03 0.03 0.05
0.02 0.02 0.02 0.02 0.01 0.02 0.02 0.03 0.04 0.05 0.04 0.04 0.04 0.03 0.03 0.02 0.02 0.02 0.02 0.01 0.01 0.00 0.00 0.01 0.01 0.01 0.01 0.01 0.01 0.01 0.01 0.01 0.01 0.02 0.03 0.03 0.02 0.02
0.01 0.01 0.01 0.01 0.01 0.01 0.01 0.02 0.03 0.04 0.03 0.04 0.05 0.05 0.03 0.03 0.02 0.02 0.02 0.02 0.01 0.00 0.00 0.00 0.00 0.00 0.00 0.01 0.01 0.01 0.01 0.01 0.01 0.01 0.02 0.02 0.02 0.02
0.01 0.01 0.01 0.01 0.02 0.01 0.02 0.02 0.03 0.03 0.03 0.03 0.04 0.04 0.04 0.03 0.02 0.02 0.01 0.01 0.02 0.01 0.01 0.00 0.00 0.00 0.00 0.01 0.01 0.01 0.01 0.01 0.01 0.01 0.01 0.02 0.02 0.02
0.02 0.02 0.02 0.02 0.02 0.02 0.02 0.02 0.02 0.01 0.02 0.02 0.03 0.03 0.02 0.02 0.03 0.02 0.02 0.02 0.01 0.01 0.01 0.01 0.01 0.00 0.01 0.02 0.02 0.02 0.02 0.02 0.02 0.02 0.02 0.02 0.02 0.02
0.03 0.02 0.01 0.01 0.02 0.02 0.02 0.02 0.01 0.02 0.02 0.02 0.02 0.02 0.02 0.02 0.02 0.03 0.02 0.02 0.02 0.02 0.01 0.01 0.01 0.01 0.02 0.03 0.03 0.02 0.02 0.02 0.01 0.01 0.01 0.01 0.01 0.01
0.03 0.02 0.01 0.01 0.01 0.01 0.01 0.02 0.02 0.02 0.02 0.02 0.02 0.03 0.03 0.03 0.03 0.02 0.02 0.03 0.03 0.03 0.03 0.02 0.02 0.02 0.02 0.02 0.02 0.02 0.01 0.01 0.01 0.01 0.01 0.01 0.01 0.01
0.02 0.02 0.01 0.01 0.01 0.01 0.01 0.01 0.01 0.02 0.02 0.03 0.04 0.05 0.05 0.05 0.06 0.05 0.04 0.03 0.03 0.03 0.03 0.03 0.03 0.03 0.03 0.02 0.01 0.01 0.01 0.01 0.01 0.01 0.01 0.01 0.01 0.02
0.02 0.01 0.01 0.01 0.02 0.01 0.01 0.02 0.02 0.02 0.02 0.03 0.03 0.04 0.06 0.07 0.07 0.06 0.06 0.05 0.06 0.05 0.05 0.04 0.04 0.05 0.04 0.04 0.02 0.01 0.01 0.01 0.00 0.01 0.01 0.01 0.01 0.02
0.01 0.02 0.01 0.02 0.02 0.02 0.02 0.03 0.03 0.03 0.03 0.03 0.03 0.03 0.05 0.06 0.06 0.06 0.07 0.08 0.07 0.07 0.06 0.05 0.04 0.04 0.04 0.05 0.03 0.01 0.01 0.01 0.01 0.01 0.01 0.01 0.01 0.01
0.01 0.02 0.02 0.02 0.02 0.02 0.03 0.03 0.03 0.03 0.03 0.03 0.03 0.03 0.04 0.05 0.05 0.05 0.06 0.06 0.06 0.05 0.04 0.04 0.03 0.04 0.05 0.05 0.03 0.02 0.01 0.01 0.01 0.02 0.01 0.01 0.01 0.02
0.02 0.02 0.02 0.02 0.03 0.03 0.03 0.03 0.04 0.04 0.05 0.04 0.04 0.03 0.03 0.04 0.05 0.04 0.05 0.05 0.05 0.04 0.04 0.04 0.03 0.04 0.04 0.04 0.04 0.02 0.02 0.01 0.02 0.02 0.03 0.02 0.02 0.02
0.02 0.02 0.02 0.03 0.03 0.03 0.03 0.02 0.03 0.05 0.05 0.05 0.04 0.04 0.04 0.04 0.04 0.04 0.05 0.05 0.05 0.04 0.05 0.05 0.03 0.04 0.05 0.04 0.04 0.03 0.02 0.02 0.02 0.03 0.05 0.05 0.04 0.03
0.03 0.03 0.04 0.04 0.04 0.04 0.04 0.04 0.06 0.06 0.06 0.05 0.05 0.05 0.05 0.04 0.04 0.04 0.04 0.04 0.05 0.05 0.07 0.06 0.05 0.06 0.07 0.06 0.05 0.05 0.05 0.04 0.03 0.03 0.03 0.05 0.05 0.05
0.04 0.05 0.06 0.07 0.07 0.06 0.07 0.07 0.06 0.05 0.05 0.04 0.04 0.03 0.03 0.04 0.04 0.04 0.04 0.04 0.04 0.04 0.05 0.06 0.06 0.08 0.07 0.06 0.05 0.05 0.05 0.05 0.04 0.04 0.05 0.05 0.06 0.07
0.07 0.10 0.11 0.10 0.09 0.07 0.07 0.06 0.05 0.04 0.03 0.03 0.03 0.03 0.03 0.03 0.03 0.04 0.05 0.06 0.06 0.05 0.06 0.06 0.06 0.06 0.05 0.04 0.05 0.05 0.06 0.06 0.05 0.06 0.06 0.06 0.06 0.07
0.10 0.10 0.10 0.08 0.07 0.05 0.04 0.04 0.03 0.02 0.02 0.02 0.02 0.03 0.03 0.03 0.04 0.05 0.07 0.08 0.08 0.07 0.06 0.06 0.06 0.07 0.07 0.05 0.05 0.05 0.05 0.05 0.05 0.05 0.06 0.06 0.06 0.07
0.09 0.06 0.06 0.06 0.05 0.05 0.04 0.04 0.03 0.02 0.02 0.03 0.04 0.05 0.05 0.05 0.07 0.08 0.10 0.09 0.09 0.08 0.07 0.07 0.09 0.09 0.08 0.06 0.05 0.05 0.05 0.05 0.05 0.05 0.05 0.06 0.06 0.06
0.08 0.05 0.05 0.06 0.06 0.05 0.05 0.04 0.03 0.03 0.04 0.04 0.04 0.04 0.06 0.08 0.09 0.10 0.10 0.11 0.11 0.11 0.10 0.09 0.10 0.10 0.08 0.05 0.03 0.04 0.05 0.05 0.07 0.07 0.07 0.07 0.07 0.07
0.06 0.05 0.05 0.06 0.06 0.07 0.06 0.05 0.05 0.05 0.05 0.06 0.06 0.06 0.07 0.09 0.09 0.09 0.09 0.10 0.10 0.10 0.11 0.11 0.11 0.11 0.10 0.08 0.07 0.05 0.05 0.06 0.07 0.07 0.07 0.07 0.07 0.07
0.04 0.04 0.04 0.05 0.06 0.06 0.06 0.06 0.07 0.08 0.08 0.07 0.06 0.07 0.07 0.08 0.07 0.07 0.08 0.10 0.13 0.13 0.12 0.10 0.10 0.13 0.13 0.12 0.11 0.09 0.08 0.07 0.07 0.07 0.07 0.08 0.08 0.08
0.03 0.04 0.04 0.04 0.04 0.04 0.05 0.06 0.06 0.06 0.06 0.07 0.07 0.07 0.07 0.07 0.07 0.07 0.09 0.10 0.10 0.11 0.11 0.10 0.12 0.13 0.12 0.12 0.10 0.10 0.09 0.08 0.08 0.09 0.09 0.08 0.07 0.07
0.05 0.06 0.06 0.05 0.06 0.06 0.06 0.06 0.06 0.06 0.06 0.06 0.07 0.08 0.09 0.09 0.10 0.10 0.10 0.10 0.10 0.10 0.09 0.09 0.10 0.11 0.09 0.09 0.09 0.09 0.09 0.09 0.08 0.07 0.07 0.07 0.07 0.06
MSLP
1013.95 1014.06 1014.25 1014.48 1014.69 1014.84 1014.87 1014.80 1014.63 1014.42 1014.22 1014.09 1014.08 1014.20 1014.46 1014.83 1015.25 1015.69 1016.11 1016.48 1016.80 1017.06 1017.29 1017.48 1017.65 1017.79 1017.88 1017.89 1017.82 1017.65 1017.39 1017.08 1016.73 1016.40 1016.12 1015.90 1015.73 1015.59
1013.69 1013.77 1013.94 1014.16 1014.38 1014.55 1014.63 1014.62 1014.52 1014.37 1014.22 1014.13 1014.13 1014.24 1014.47 1014.79 1015.16 1015.55 1015.94 1016.30 1016.61 1016.90 1017.16 1017.40 1017.61 1017.79 1017.91 1017.95 1017.90 1017.73 1017.48 1017.16 1016.82 1016.49 1016.20 1015.98 1015.81 1015.67
1013.38 1013.44 1013.59 1013.80 1014.02 1014.20 1014.32 1014.36 1014.34 1014.26 1014.18 1014.14 1014.17 1014.29 1014.49 1014.77 1015.09 1015.42 1015.75 1016.07 1016.37 1016.65 1016.92 1017.19 1017.44 1017.66 1017.83 1017.92 1017.90 1017.78 1017.56 1017.27 1016.94 1016.62 1016.34 1016.13 1015.96 1015.80
1013.01 1013.06 1013.19 1013.38 1013.59 1013.79 1013.94 1014.04 1014.08 1014.08 1014.08 1014.10 1014.17 1014.31 1014.50 1014.74 1015.01 1015.28 1015.56 1015.82 1016.08 1016.34 1016.61 1016.89 1017.18 1017.45 1017.67 1017.82 1017.87 1017.81 1017.64 1017.39 1017.10 1016.81 1016.54 1016.32 1016.15 1016.00
1012.58 1012.62 1012.74 1012.92 1013.12 1013.33 1013.51 1013.65 1013.75 1013.82 1013.89 1013.98 1014.10 1014.26 1014.45 1014.67 1014.90 1015.12 1015.34 1015.55 1015.76 1016.00 1016.27 1016.56 1016.88 1017.20 1017.48 1017.70 1017.82 1017.83 1017.74 1017.55 1017.30 1017.04 1016.79 1016.57 1016.40 1016.24
1012.08 1012.13 1012.25 1012.43 1012.63 1012.85 1013.05 1013.22 1013.36 1013.50 1013.63 1013.77 1013.93 1014.12 1014.32 1014.53 1014.73 1014.92 1015.09 1015.26 1015.44 1015.66 1015.92 1016.23 1016.57 1016.94 1017.29 1017.58 1017.78 1017.88 1017.86 1017.74 1017.54 1017.31 1017.08 1016.87 1016.69 1016.54
1011.53 1011.61 1011.75 1011.94 1012.15 1012.38 1012.59 1012.79 1012.96 1013.13 1013.31 1013.49 1013.69 1013.90 1014.11 1014.31 1014.49 1014.66 1014.80 1014.94 1015.11 1015.31 1015.58 1015.90 1016.28 1016.70 1017.10 1017.47 1017.75 1017.93 1017.99 1017.94 1017.81 1017.62 1017.41 1017.21 1017.04 1016.90
1010.93 1011.06 1011.24 1011.47 1011.71 1011.95 1012.18 1012.39 1012.59 1012.78 1012.97 1013.17 1013.38 1013.60 1013.81 1014.01 1014.19 1014.34 1014.47 1014.61 1014.77 1014.98 1015.25 1015.60 1016.01 1016.47 1016.94 1017.37 1017.73 1017.98 1018.12 1018.15 1018.08 1017.94 1017.76 1017.58 1017.43 1017.30
1010.30 1010.51 1010.76 1011.04 1011.33 1011.61 1011.86 1012.08 1012.28 1012.47 1012.66 1012.85 1013.05 1013.26 1013.47 1013.66 1013.83 1013.97 1014.11 1014.25 1014.42 1014.64 1014.93 1015.31 1015.75 1016.25 1016.76 1017.25 1017.68 1018.01 1018.22 1018.32 1018.31 1018.23 1018.10 1017.96 1017.83 1017.72
1009.65 1009.96 1010.30 1010.67 1011.02 1011.34 1011.62 1011.85 1012.05 1012.23 1012.39 1012.56 1012.74 1012.92 1013.10 1013.27 1013.43 1013.58 1013.72 1013.87 1014.05 1014.29 1014.61 1015.01 1015.48 1016.00 1016.55 1017.09 1017.57 1017.96 1018.24 1018.41 1018.47 1018.46 1018.38 1018.29 1018.20 1018.13
1008.99 1009.41 1009.87 1010.33 1010.76 1011.14 1011.45 1011.70 1011.89 1012.05 1012.18 1012.31 1012.44 1012.59 1012.73 1012.88 1013.02 1013.16 1013.31 1013.47 1013.67 1013.93 1014.27 1014.68 1015.16 1015.70 1016.27 1016.84 1017.35 1017.79 1018.13 1018.37 1018.51 1018.56 1018.56 1018.53 1018.49 1018.46
1008.33 1008.87 1009.44 1010.00 1010.52 1010.96 1011.31 1011.58 1011.77 1011.90 1012.00 1012.09 1012.17 1012.27 1012.38 1012.49 1012.62 1012.75 1012.90 1013.07 1013.28 1013.55 1013.89 1014.31 1014.79 1015.33 1015.90 1016.47 1017.00 1017.47 1017.87 1018.16 1018.37 1018.51 1018.58 1018.63 1018.66 1018.69
1007.66 1008.32 1009.00 1009.65 1010.25 1010.75 1011.15 1011.43 1011.62 1011.74 1011.81 1011.86 1011.90 1011.96 1012.03 1012.12 1012.22 1012.35 1012.49 1012.67 1012.89 1013.16 1013.49 1013.89 1014.36 1014.87 1015.42 1015.98 1016.51 1017.00 1017.43 1017.78 1018.06 1018.27 1018.43 1018.56 1018.67 1018.77
1007.00 1007.74 1008.51 1009.25 1009.91 1010.46 1010.88 1011.19 1011.39 1011.50 1011.55 1011.58 1011.60 1011.62 1011.67 1011.74 1011.84 1011.96 1012.10 1012.28 1012.49 1012.75 1013.06 1013.43 1013.86 1014.34 1014.85 1015.37 1015.89 1016.38 1016.83 1017.22 1017.57 1017.86 1018.10 1018.32 1018.51 1018.68
1006.32 1007.14 1007.97 1008.75 1009.45 1010.03 1010.48 1010.80 1011.01 1011.13 1011.18 1011.21 1011.22 1011.25 1011.30 1011.37 1011.46 1011.58 1011.73 1011.90 1012.10 1012.34 1012.62 1012.95 1013.32 1013.74 1014.20 1014.68 1015.16 1015.64 1016.10 1016.53 1016.93 1017.29 1017.62 1017.92 1018.20 1018.45
1005.64 1006.50 1007.35 1008.14 1008.85 1009.44 1009.90 1010.23 1010.46 1010.60 1010.67 1010.72 1010.76 1010.81 1010.88 1010.97 1011.09 1011.22 1011.37 1011.54 1011.73 1011.94 1012.18 1012.46 1012.77 1013.13 1013.52 1013.94 1014.39 1014.85 1015.32 1015.78 1016.22 1016.64 1017.05 1017.43 1017.78 1018.11
1004.94 1005.80 1006.63 1007.41 1008.10 1008.67 1009.13 1009.47 1009.72 1009.89 1010.01 1010.10 1010.19 1010.30 1010.42 1010.55 1010.71 1010.87 1011.04 1011.21 1011.38 1011.57 1011.76 1011.98 1012.24 1012.53 1012.86 1013.23 1013.63 1014.07 1014.54 1015.02 1015.50 1015.98 1016.45 1016.90 1017.32 1017.71
1004.20 1005.03 1005.82 1006.55 1007.19 1007.73 1008.17 1008.52 1008.79 1009.00 1009.18 1009.34 1009.51 1009.69 1009.88 1010.09 1010.30 1010.50 1010.70 1010.88 1011.05 1011.21 1011.38 1011.55 1011.75 1011.98 1012.25 1012.57 1012.94 1013.36 1013.83 1014.32 1014.84 1015.37 1015.90 1016.41 1016.89 1017.34
1003.40 1004.17 1004.89 1005.55 1006.13 1006.62 1007.04 1007.39 1007.69 1007.96 1008.21 1008.46 1008.72 1008.99 1009.27 1009.56 1009.84 1010.10 1010.34 1010.54 1010.72 1010.88 1011.02 1011.15 1011.31 1011.49 1011.72 1012.00 1012.35 1012.76 1013.23 1013.75 1014.30 1014.87 1015.45 1016.01 1016.54 1017.03
1002.52 1003.21 1003.85 1004.42 1004.93 1005.37 1005.77 1006.12 1006.46 1006.78 1007.11 1007.45 1007.81 1008.19 1008.57 1008.95 1009.30 1009.63 1009.92 1010.16 1010.36 1010.52 1010.66 1010.78 1010.91 1011.07 1011.27 1011.54 1011.87 1012.28 1012.76 1013.30 1013.88 1014.50 1015.12 1015.73 1016.30 1016.83
1001.57 1002.17 1002.71 1003.19 1003.63 1004.02 1004.40 1004.76 1005.12 1005.51 1005.91 1006.35 1006.81 1007.28 1007.76 1008.22 1008.66 1009.06 1009.41 1009.70 1009.94 1010.12 1010.27 1010.40 1010.53 1010.69 1010.89 1011.15 1011.49 1011.90 1012.40 1012.96 1013.58 1014.23 1014.90 1015.54 1016.16 1016.73
1000.58 1001.08 1001.52 1001.92 1002.28 1002.63 1002.98 1003.35 1003.75 1004.18 1004.65 1005.16 1005.70 1006.26 1006.82 1007.37 1007.88 1008.36 1008.77 1009.12 1009.40 1009.63 1009.82 1009.98 1010.14 1010.31 1010.53 1010.81 1011.16 1011.59 1012.11 1012.70 1013.34 1014.03 1014.73 1015.42 1016.07 1016.67
999.63 1000.02 1000.37 1000.68 1000.98 1001.29 1001.62 1001.99 1002.40 1002.87 1003.38 1003.95 1004.54 1005.16 1005.78 1006.39 1006.96 1007.50 1007.97 1008.38 1008.73 1009.02 1009.27 1009.48 1009.68 1009.90 1010.15 1010.46 1010.84 1011.29 1011.83 1012.44 1013.11 1013.82 1014.55 1015.27 1015.96 1016.60
Thickness
5768 5766 5764 5764 5763 5761 5758 5752 5742 5733 5731 5735 5735 5735 5732 5728 5724 5720 5717 5713 5710 5707 5705 5703 5700 5698 5696 5695 5693 5692 5690 5688 5687 5685 5683 5682 5680 5678
5766 5764 5762 5762 5761 5760 5757 5754 5748 5740 5732 5735 5735 5734 5732 5728 5723 5719 5716 5712 5708 5705 5703 5700 5698 5695 5693 5692 5690 5688 5686 5684 5682 5680 5679 5677 5675 5674
5765 5763 5760 5760 5758 5757 5755 5752 5748 5743 5734 5734 5735 5733 5730 5725 5720 5718 5714 5711 5706 5703 5700 5698 5695 5693 5690 5688 5686 5684 5682 5680 5678 5676 5674 5672 5671 5669
5762 5761 5758 5758 5755 5753 5751 5749 5746 5743 5736 5730 5730 5729 5726 5723 5719 5715 5713 5710 5706 5703 5699 5696 5693 5690 5687 5685 5682 5680 5678 5676 5674 5672 5670 5668 5666 5664
5761 5759 5757 5754 5751 5750 5748 5746 5744 5742 5737 5731 5727 5726 5723 5721 5716 5713 5711 5708 5706 5702 5697 5693 5690 5687 5684 5681 5678 5676 5674 5672 5670 5667 5665 5663 5661 5659
5761 5758 5756 5753 5750 5748 5745 5742 5740 5736 5734 5729 5725 5722 5720 5717 5713 5707 5704 5703 5702 5701 5696 5692 5688 5684 5681 5679 5676 5672 5669 5667 5665 5663 5661 5659 5657 5655
5758 5757 5755 5752 5749 5746 5743 5739 5735 5731 5728 5724 5721 5717 5715 5711 5707 5705 5701 5700 5699 5698 5693 5690 5686 5682 5678 5675 5672 5669 5666 5663 5661 5659 5656 5654 5652 5650
5755 5754 5752 5749 5746 5743 5740 5736 5732 5728 5723 5720 5717 5713 5710 5709 5706 5702 5698 5694 5690 5694 5690 5686 5685 5680 5678 5674 5671 5668 5664 5661 5658 5655 5653 5651 5648 5646
5753 5750 5749 5748 5744 5740 5737 5733 5730 5726 5722 5717 5712 5710 5707 5706 5703 5698 5695 5691 5688 5690 5686 5682 5682 5679 5678 5676 5671 5667 5662 5659 5655 5652 5649 5647 5644 5641
5751 5748 5744 5742 5739 5735 5732 5729 5726 5724 5720 5716 5712 5710 5707 5704 5701 5697 5693 5691 5689 5687 5683 5676 5677 5676 5675 5673 5669 5665 5661 5656 5652 5649 5645 5642 5639 5636
5748 5745 5742 5738 5734 5730 5726 5723 5721 5719 5718 5714 5711 5708 5705 5701 5697 5692 5687 5683 5679 5680 5680 5674 5672 5670 5669 5667 5664 5661 5657 5653 5648 5644 5641 5638 5635 5631
5743 5741 5738 5734 5730 5725 5720 5717 5714 5712 5711 5708 5705 5703 5700 5697 5693 5688 5684 5678 5675 5673 5676 5671 5668 5664 5661 5661 5659 5655 5651 5647 5644 5640 5637 5634 5630 5626
5737 5735 5733 5729 5724 5720 5715 5712 5710 5706 5704 5702 5700 5698 5696 5693 5690 5686 5683 5678 5672 5670 5671 5667 5662 5659 5656 5654 5653 5650 5647 5643 5639 5635 5632 5629 5626 5623
5732 5731 5728 5723 5718 5714 5710 5707 5704 5699 5698 5696 5694 5692 5690 5687 5686 5684 5681 5677 5674 5670 5668 5664 5659 5655 5650 5647 5645 5645 5642 5640 5636 5633 5630 5626 5622 5620
5728 5725 5721 5717 5711 5708 5705 5701 5697 5693 5691 5689 5687 5686 5685 5684 5682 5679 5677 5674 5670 5667 5664 5660 5656 5652 5648 5643 5641 5639 5637 5635 5632 5629 5627 5624 5620 5617
5716 5715 5712 5708 5703 5701 5699 5696 5693 5690 5686 5684 5682 5682 5680 5678 5675 5673 5669 5666 5662 5660 5660 5657 5653 5648 5643 5641 5637 5635 5633 5630 5629 5626 5623 5621 5618 5616
5709 5706 5704 5701 5698 5696 5695 5692 5689 5685 5681 5679 5677 5675 5673 5671 5670 5668 5664 5661 5656 5653 5651 5650 5648 5644 5641 5636 5632 5630 5628 5626 5625 5622 5619 5616 5615 5613
5700 5699 5698 5697 5693 5690 5688 5686 5683 5680 5677 5675 5672 5669 5667 5664 5662 5660 5657 5652 5649 5647 5645 5642 5640 5636 5632 5631 5629 5626 5623 5621 5620 5617 5614 5611 5610 5610
5693 5693 5692 5689 5686 5684 5682 5679 5677 5675 5673 5670 5667 5663 5661 5658 5654 5651 5648 5645 5642 5640 5638 5636 5632 5628 5623 5622 5625 5623 5619 5617 5615 5612 5610 5607 5606 5606
5687 5685 5684 5682 5680 5678 5676 5674 5671 5669 5666 5663 5660 5657 5653 5649 5646 5643 5640 5637 5634 5632 5631 5629 5626 5623 5619 5618 5618 5618 5616 5613 5609 5607 5605 5603 5602 5600
5682 5679 5677 5676 5675 5672 5670 5667 5663 5660 5657 5653 5651 5647 5644 5640 5637 5635 5632 5629 5625 5624 5622 5622 5623 5621 5618 5615 5612 5611 5611 5608 5606 5602 5599 5596 5593 5592
5675 5672 5671 5669 5667 5664 5662 5659 5655 5651 5648 5645 5642 5639 5636 5632 5628 5626 5623 5620 5618 5617 5617 5617 5617 5615 5611 5608 5605 5605 5603 5600 5597 5595 5593 5591 5588 5585
5668 5665 5662 5660 5658 5655 5652 5650 5647 5643 5639 5636 5633 5630 5626 5623 5620 5617 5615 5613 5611 5609 5608 5607 5607 5605 5604 5602 5600 5598 5596 5594 5591 5587 5584 5584 5583 5581